CDT,Max TemperatureF,Mean TemperatureF,Min TemperatureF,Max Dew PointF,MeanDew PointF,Min DewpointF,Max Humidity, Mean Humidity, Min Humidity, Max Sea Level PressureIn, Mean Sea Level PressureIn, Min Sea Level PressureIn, Max VisibilityMiles, Mean VisibilityMiles, Min VisibilityMiles, Max Wind SpeedMPH, Mean Wind SpeedMPH, Max Gust SpeedMPH,PrecipitationIn, CloudCover, Events, WindDirDegrees
2013-5-1,95,76,60,44,30,13,51,21,6,29.86,29.71,29.60,10,10,8,15,11,22,0.00,1,,76
2013-5-2,63,52,39,43,33,22,93,68,31,30.53,30.38,29.93,10,8,3,23,18,33,0.00,6,Rain,355
2013-5-3,66,49,32,24,18,12,69,34,13,30.48,30.26,30.01,10,10,10,10,4,,0.00,0,,155
2013-5-4,79,62,46,19,17,14,29,18,11,29.98,29.90,29.81,10,10,10,16,10,20,0.00,0,,130
2013-5-5,79,64,50,24,21,18,32,20,11,30.08,29.98,29.91,10,10,10,17,8,24,0.00,0,,116
2013-5-6,82,72,61,41,34,23,43,29,18,29.97,29.89,29.81,10,10,10,21,12,28,0.00,1,Rain,132
2013-5-7,88,72,57,55,40,28,64,34,12,29.91,29.84,29.76,10,10,10,20,13,26,0.00,0,,150
2013-5-8,91,75,60,58,38,14,90,38,6,29.95,29.80,29.72,10,10,5,18,12,26,0.00,0,,237
2013-5-9,89,76,64,57,35,18,73,30,8,29.86,29.79,29.72,10,10,8,18,7,48,0.00,1,Rain,241
2013-5-10,77,64,54,54,47,35,94,54,28,30.20,29.99,29.79,10,10,5,26,14,43,0.11,5,Rain-Thunderstorm,21
2013-5-11,77,62,50,52,45,33,93,59,21,30.17,30.13,30.08,10,10,10,13,7,20,0.00,2,,86
2013-5-12,78,64,52,46,40,34,77,44,22,30.20,30.14,30.07,10,10,10,16,6,24,0.00,0,,136
2013-5-13,82,68,54,48,43,39,62,42,25,30.17,30.11,30.02,10,10,10,16,10,23,0.00,0,,153
2013-5-14,90,73,60,57,50,38,82,54,18,30.06,29.98,29.87,10,10,2,21,11,33,0.29,3,Rain-Thunderstorm,155
2013-5-15,93,76,59,55,43,32,87,39,12,29.92,29.79,29.68,10,10,10,24,14,36,0.00,0,,219
2013-5-16,99,82,66,41,31,22,36,19,7,29.85,29.70,29.63,10,10,10,21,12,30,0.00,0,,268
2013-5-17,102,84,68,44,30,20,25,16,6,29.77,29.70,29.65,10,10,10,20,11,26,0.00,0,,196
2013-5-18,99,82,64,57,29,11,58,21,4,29.76,29.69,29.62,10,10,10,18,11,29,0.00,0,,209
2013-5-19,95,78,64,62,31,14,76,26,5,29.77,29.68,29.60,10,10,7,21,7,30,0.00,0,,243
2013-5-20,96,80,66,47,24,14,42,14,6,29.75,29.67,29.59,10,10,10,18,11,32,0.00,0,,274
2013-5-21,88,76,66,51,34,19,51,23,13,29.81,29.73,29.61,10,10,10,17,11,29,0.00,0,,291
2013-5-22,95,80,64,56,45,39,46,31,15,29.80,29.73,29.65,10,10,10,20,13,30,0.00,0,,155
2013-5-23,96,78,64,65,59,43,84,57,23,30.09,29.82,29.68,10,9,5,22,16,31,0.14,2,Rain,155
2013-5-24,88,76,63,60,57,51,84,58,31,30.08,29.93,29.83,10,10,10,21,14,30,0.01,1,,129
2013-5-25,84,74,64,61,59,58,84,63,41,30.07,29.93,29.82,10,10,8,21,16,31,0.00,1,,135
2013-5-26,98,82,66,63,58,48,81,49,21,30.15,29.86,29.73,10,10,10,28,15,40,0.00,1,Rain,145
2013-5-27,100,84,69,64,59,48,81,51,18,29.80,29.71,29.61,10,10,10,24,17,34,0.00,0,Rain,153
2013-5-28,96,84,72,64,61,53,76,54,26,29.72,29.59,29.49,10,10,10,30,20,43,0.00,0,,151
2013-5-29,98,84,70,64,41,12,71,35,5,29.62,29.55,29.46,10,10,10,30,18,44,0.00,0,,209
2013-5-30,97,81,66,64,44,27,84,36,9,29.70,29.65,29.59,10,10,9,17,12,24,0.00,0,,209
2013-5-31,104,84,66,63,47,21,79,37,6,29.75,29.67,29.58,10,10,10,21,11,31,0.00,0,,170